Theta_e
310 311 310 311 311 311 311 310 311 310 311 311 310 309 310 310 311 311 319 323 321 322 327 328 328 331 331 331 333 335 337 338 338 337 336 336 336 336 333 332 332 332 330 331 332 333 333 333 332 332 333 334 336 331 331 332 327 329 330 330 326 323 324 325 323 321 323 321 321 322 325 324 326 324 323 322 325 328 329 327 323 325 326 322 323 321 322
309 310 310 311 309 309 310 310 310 311 311 310 313 314 317 317 316 323 322 323 323 325 328 331 331 332 333 333 336 337 336 335 336 336 335 335 334 335 334 333 333 333 332 332 333 333 332 331 331 332 335 335 333 331 331 332 334 331 328 328 328 326 325 323 324 325 326 324 322 322 322 323 325 325 325 326 325 326 327 326 323 326 328 327 324 322 322
307 309 311 311 310 310 309 310 311 311 312 313 313 312 317 319 318 317 321 322 321 327 332 334 335 335 334 335 333 334 335 335 335 335 334 334 334 334 335 334 334 333 333 332 332 332 331 332 333 333 334 334 331 331 331 331 330 330 330 330 327 322 325 325 328 327 324 324 324 323 325 326 325 325 326 325 330 327 323 326 326 328 327 325 325 323 322
305 309 309 310 310 310 309 309 311 311 311 310 312 312 315 315 313 317 320 320 321 328 332 335 334 333 332 332 333 333 334 333 334 333 333 334 333 334 334 334 334 333 332 332 331 331 332 333 332 333 333 331 331 331 331 330 331 329 330 329 328 327 327 325 326 327 324 326 325 325 322 326 325 326 327 324 327 328 327 325 326 325 326 326 326 326 325
305 309 310 309 310 308 305 307 310 312 313 313 315 319 319 317 318 317 313 314 327 331 334 332 332 333 333 333 333 332 333 334 334 334 334 334 334 334 334 334 333 333 333 332 333 332 333 333 333 332 333 332 331 331 330 331 329 327 329 327 328 327 327 326 327 328 327 325 325 324 326 324 326 328 327 324 326 325 324 323 325 326 328 325 326 327 327
304 311 308 309 306 299 302 313 319 316 312 316 316 315 318 319 318 316 319 324 331 334 333 332 331 332 332 333 335 336 335 334 334 335 335 334 335 335 335 334 333 333 333 334 333 334 334 334 333 334 333 332 331 332 331 332 328 327 327 327 327 327 327 327 327 328 327 327 326 326 326 326 324 325 325 324 324 327 328 328 327 325 324 326 326 326 326
305 308 309 304 299 303 314 317 317 319 319 318 317 316 318 320 322 321 323 329 332 333 334 334 334 335 336 337 336 336 337 337 335 335 335 334 335 335 334 334 334 334 335 334 334 334 334 334 334 333 333 331 332 331 330 327 327 327 326 326 327 327 327 327 327 327 326 326 326 326 326 326 325 326 327 328 325 327 326 327 329 327 326 325 326 327 328
309 306 306 297 300 312 316 316 317 320 318 322 320 317 318 320 322 325 327 327 326 327 330 334 335 335 336 337 337 337 337 338 337 335 335 335 335 334 334 334 334 335 335 334 334 334 336 334 333 333 331 332 331 330 330 327 327 328 327 327 326 327 327 327 327 328 326 326 327 326 324 326 326 327 325 327 327 328 327 328 325 327 327 328 327 327 327
303 304 304 304 311 308 311 312 314 315 314 319 316 311 316 321 323 327 328 327 326 325 322 329 335 335 335 332 333 337 337 338 338 337 336 336 335 336 336 335 334 336 336 336 336 337 335 334 333 333 333 332 330 328 327 326 327 326 326 326 326 327 327 327 327 327 327 326 325 327 326 324 325 324 324 326 326 328 326 325 325 326 327 329 328 328 328
310 305 303 305 304 301 308 314 319 321 322 322 322 318 316 324 326 329 329 328 326 324 326 328 334 335 330 326 328 335 337 338 338 338 337 337 337 337 336 336 335 336 336 337 336 335 334 334 334 333 332 332 330 327 326 326 326 325 325 324 326 327 327 328 328 329 328 328 327 326 326 326 325 328 328 330 325 327 327 326 326 325 328 328 329 330 325
308 306 302 302 301 307 313 314 320 319 321 322 322 315 310 323 326 330 331 330 328 326 325 328 334 330 324 325 329 334 336 337 337 335 336 336 336 337 336 334 334 334 335 335 334 335 333 332 333 334 333 331 327 326 327 325 326 325 325 326 326 326 327 328 329 329 329 328 327 326 327 326 326 327 328 328 327 330 330 328 327 329 326 327 329 330 329
307 306 303 303 307 310 314 316 318 320 319 322 316 304 307 323 327 328 333 331 329 331 334 333 331 328 321 324 331 336 336 337 337 336 334 335 336 335 335 335 335 335 335 334 332 331 330 330 331 332 330 329 327 326 326 324 324 323 325 326 327 327 328 330 330 331 330 329 328 328 327 329 328 333 330 328 328 328 329 327 326 327 329 326 327 327 329
309 308 305 307 308 318 321 318 321 322 321 317 306 302 318 329 331 331 329 330 331 334 335 334 330 332 333 337 337 337 337 336 335 336 337 336 336 334 334 334 336 333 333 332 330 329 329 330 330 330 329 327 326 327 326 325 323 325 327 328 327 328 329 329 329 329 329 329 328 328 325 327 329 328 331 330 328 328 328 329 329 330 329 328 327 328 329
305 311 306 306 311 322 322 324 322 326 318 308 311 323 331 330 335 332 332 330 333 337 336 335 335 336 338 338 337 336 337 335 335 335 335 335 335 334 335 335 334 332 331 330 329 328 329 328 328 329 327 326 327 327 325 323 324 329 328 329 328 328 328 328 328 329 329 330 327 324 327 330 329 328 330 331 330 330 331 329 328 327 328 328 327 327 329
310 311 306 305 299 320 328 325 322 327 317 320 329 331 328 331 330 331 332 332 335 339 335 336 337 336 336 336 336 335 336 335 334 334 333 332 332 332 332 332 333 331 329 328 328 327 327 327 327 328 328 326 326 326 324 324 327 328 328 327 326 326 327 326 328 328 327 327 326 324 326 329 329 328 330 330 330 330 329 327 327 326 326 327 327 328 328
308 308 307 308 317 325 329 324 320 327 329 332 335 334 326 330 330 331 334 336 336 338 338 336 336 336 335 336 335 335 335 335 334 334 334 333 332 332 332 332 331 331 329 329 328 326 326 327 327 328 326 326 327 324 324 328 329 327 329 327 328 325 328 327 329 328 328 327 327 328 329 331 327 328 328 328 328 329 329 327 329 326 327 326 327 326 325
317 313 316 322 326 324 324 324 326 330 335 337 336 333 328 328 331 334 334 335 339 338 338 337 336 334 334 335 335 334 333 334 333 333 333 332 331 330 330 329 331 330 329 328 328 327 326 326 328 331 328 326 325 323 326 330 329 326 325 325 325 325 325 326 328 328 328 329 328 328 330 331 328 328 327 328 328 328 329 328 328 326 327 325 325 325 325
323 325 324 324 325 325 324 325 326 325 326 333 332 329 328 331 337 339 338 337 337 338 339 335 335 334 334 334 334 334 334 333 333 334 333 332 331 331 330 330 329 330 328 327 327 326 325 325 328 331 330 327 325 326 328 329 327 328 325 326 325 325 324 327 327 329 326 327 328 330 329 330 330 330 329 329 329 328 329 328 327 326 326 324 323 324 328
316 309 326 323 322 324 325 327 327 328 329 329 334 335 338 339 339 338 340 339 339 338 337 335 334 334 335 334 335 335 334 334 333 333 332 331 331 330 329 330 331 330 328 324 324 324 321 325 326 327 327 327 328 331 330 327 325 328 327 326 325 326 326 325 325 328 327 327 328 329 329 328 328 328 330 329 328 328 328 327 327 328 325 324 323 324 328
316 320 326 325 326 329 332 330 330 327 331 333 334 337 339 340 341 339 341 340 338 338 335 335 334 334 335 334 335 334 334 334 333 333 332 332 331 331 331 331 331 329 327 325 323 322 324 325 326 326 326 326 328 328 325 324 325 326 327 324 321 321 320 322 325 324 323 325 326 327 329 328 324 325 329 325 324 326 325 327 327 326 326 326 325 324 324
320 323 324 325 329 328 327 330 333 334 335 335 336 334 334 335 336 339 338 337 337 336 335 339 337 333 334 335 335 334 334 333 333 333 332 333 332 332 331 332 333 333 328 325 323 323 324 326 326 327 326 327 329 326 325 326 328 326 325 324 325 321 322 323 322 327 323 324 326 325 328 329 328 330 330 325 328 328 329 339 334 330 325 327 327 325 322
315 316 319 323 317 317 323 327 331 333 336 336 335 335 334 333 332 335 334 335 333 332 337 336 334 333 335 335 335 333 334 334 334 333 333 332 331 330 331 331 331 331 328 326 323 323 325 328 327 327 325 329 330 324 325 328 327 328 328 324 324 326 326 324 323 322 325 323 325 326 325 328 328 330 329 326 325 331 331 335 324 315 315 326 332 331 328
316 323 325 328 328 328 328 328 332 333 333 334 333 333 333 334 334 335 333 330 333 330 333 335 335 334 334 334 335 334 333 334 335 334 333 331 330 330 330 328 326 326 325 327 326 327 327 328 329 328 326 325 329 325 327 329 326 329 328 327 324 323 326 321 319 320 320 322 330 328 329 328 328 326 325 330 310 311 317 332 321 308 304 305 307 312 325
325 326 327 327 329 332 329 329 331 332 335 334 331 332 334 332 335 334 332 333 333 332 332 331 334 334 335 335 335 334 333 334 335 334 334 333 332 330 328 327 326 327 325 326 325 326 326 327 328 328 323 325 329 328 329 331 328 329 329 328 326 328 325 325 332 331 329 329 327 330 330 330 330 328 327 326 331 313 306 309 310 308 304 302 301 302 305
328 333 331 333 332 331 331 332 332 332 336 335 332 332 333 333 335 337 333 334 333 331 330 329 331 335 334 333 333 334 333 333 334 334 334 333 331 329 327 324 324 327 327 328 327 326 325 326 326 327 325 325 324 325 327 326 328 328 328 327 325 326 327 329 334 331 329 330 329 328 326 327 328 328 325 325 323 325 326 308 304 303 302 302 301 300 301
335 334 333 332 331 332 332 333 331 334 331 334 335 334 339 337 337 336 334 337 332 333 332 331 330 331 335 333 332 333 333 333 333 334 332 330 329 328 326 324 324 326 326 327 326 326 325 326 327 326 325 326 324 326 324 325 326 329 327 324 324 324 326 330 331 329 328 329 330 330 330 332 330 328 327 326 324 324 327 324 323 315 305 301 300 301 300
336 338 334 330 328 328 330 329 333 332 332 334 336 333 331 335 335 333 333 334 334 332 332 332 331 331 332 334 334 333 332 332 333 332 331 329 328 327 324 324 324 324 324 324 327 328 328 330 327 327 324 324 324 327 326 324 329 329 327 329 328 327 328 328 328 330 330 331 329 330 331 331 330 326 326 328 327 324 323 322 322 323 321 323 313 304 312
337 336 333 331 324 325 328 333 334 333 333 332 333 333 330 333 331 330 331 331 331 334 332 333 330 330 331 333 333 332 332 332 331 330 330 328 326 325 325 325 324 324 323 326 330 331 330 329 325 325 324 325 326 327 326 326 331 330 331 330 328 328 328 327 328 329 328 330 332 331 331 331 329 327 327 327 324 324 323 324 323 322 324 324 324 318 308
335 334 333 333 337 333 335 336 336 334 334 332 331 333 331 329 329 329 329 330 331 331 330 329 332 333 331 331 332 331 331 330 328 328 328 330 328 323 324 325 324 324 325 328 325 331 331 329 326 323 325 326 326 326 324 325 329 327 328 329 330 329 329 332 333 331 331 330 331 331 330 328 328 328 327 327 326 324 325 325 325 323 323 329 327 338 322
331 331 332 331 333 332 332 331 331 334 332 331 330 329 331 330 327 327 328 328 329 328 328 329 332 333 331 329 330 331 329 329 330 331 326 324 323 325 326 329 327 328 328 328 329 330 330 329 328 327 327 325 325 326 324 328 330 330 330 330 330 330 329 330 331 332 331 331 326 330 331 328 331 330 327 326 326 327 325 325 325 324 324 326 322 322 325
332 333 333 331 334 332 333 334 334 332 331 329 330 329 329 331 327 328 328 329 329 328 329 330 333 331 331 330 331 328 326 325 326 324 325 330 332 331 329 327 324 324 326 326 329 329 330 329 328 329 330 327 324 325 325 325 327 327 329 331 332 331 331 332 331 328 326 327 328 326 326 326 326 326 325 324 324 325 325 324 324 324 324 324 323 321 325
329 330 330 330 331 332 332 337 334 331 332 330 329 330 327 329 328 327 327 327 328 327 329 329 329 330 333 332 333 336 331 329 329 327 323 327 332 333 333 331 330 327 330 329 328 330 329 329 328 328 332 334 330 327 325 325 329 327 324 327 326 327 328 328 327 327 327 326 326 325 326 326 324 324 324 324 324 324 324 323 323 323 322 322 322 323 331
331 328 327 329 330 329 329 330 331 329 329 329 328 331 330 330 330 329 329 329 327 328 327 329 331 332 333 334 333 332 330 329 327 327 323 326 328 328 332 330 328 332 331 329 330 330 328 327 327 328 332 329 328 328 325 325 326 326 326 327 326 327 327 329 327 327 327 326 325 325 325 324 324 325 324 325 325 325 323 323 324 323 323 323 323 327 328
332 333 336 332 331 329 328 330 332 334 330 330 330 329 329 331 331 330 330 333 329 327 328 329 333 332 330 329 332 330 326 325 323 325 324 327 328 330 330 326 329 329 332 333 329 328 328 326 327 328 327 327 328 326 326 326 329 329 329 328 326 326 327 327 329 328 326 325 325 327 327 327 327 325 325 326 326 325 325 325 323 323 322 323 324 327 323
335 333 333 335 332 331 330 330 331 330 328 329 327 329 333 333 333 331 333 333 331 331 332 334 335 333 329 326 327 327 327 326 327 327 330 329 331 330 332 330 331 332 332 332 331 330 328 327 329 328 332 326 326 326 325 324 323 326 331 331 329 327 327 327 326 326 326 325 327 326 326 325 324 326 326 326 325 325 325 324 324 323 322 322 322 326 326
332 332 333 335 334 332 333 330 328 328 330 330 330 330 333 334 333 332 330 331 330 331 333 335 334 329 328 330 327 325 327 326 330 330 329 329 330 332 333 331 331 329 327 328 327 327 328 327 331 331 328 326 324 324 324 324 325 327 329 329 327 327 327 326 326 326 327 326 325 326 326 326 327 327 326 328 327 326 324 324 323 323 323 323 322 322 327
339 339 338 338 340 337 334 339 335 332 331 334 334 333 334 334 333 334 332 330 331 331 333 329 328 328 326 327 326 325 326 328 328 328 328 330 332 333 331 328 329 327 327 324 326 326 327 326 332 333 330 326 326 326 335 333 331 329 335 329 325 327 323 323 325 327 326 328 326 326 326 325 325 326 327 326 324 324 323 323 323 324 322 321 320 320 322
334 336 336 336 342 336 336 335 333 335 332 332 334 335 336 334 334 332 331 331 331 332 333 330 328 330 332 330 327 325 326 325 325 330 335 335 334 331 329 327 327 326 323 326 330 327 327 330 341 336 329 328 326 324 328 335 335 327 325 323 323 323 323 323 324 324 324 324 326 326 326 324 324 324 324 324 324 324 323 322 323 322 321 321 321 321 320
335 337 339 339 339 338 337 336 334 336 332 332 332 335 336 334 334 331 330 330 333 334 332 333 331 332 332 328 327 330 324 324 324 325 328 332 333 330 330 330 331 330 333 331 327 326 330 332 332 331 330 328 327 324 327 337 342 332 327 327 326 326 324 324 323 324 327 327 326 325 326 324 324 324 324 323 323 323 324 324 323 322 321 321 321 320 320
336 338 338 335 335 339 338 336 334 335 333 331 330 332 333 332 331 330 331 334 335 339 333 336 333 331 331 332 329 328 329 327 327 327 327 331 333 331 331 330 332 332 333 333 327 325 334 338 330 326 330 330 326 327 330 333 337 334 329 326 325 324 324 325 324 323 323 325 325 327 325 324 324 324 323 323 322 323 322 322 322 322 321 321 321 321 321
336 336 337 338 338 336 333 332 331 335 332 334 333 335 334 333 336 332 329 330 334 335 338 336 332 332 333 331 330 329 333 326 326 327 331 331 329 329 323 324 330 326 326 326 329 330 340 332 328 327 332 329 326 331 330 333 333 328 328 326 324 324 324 324 324 323 323 323 323 323 323 324 324 323 323 323 323 322 322 322 321 321 321 320 320 320 321
332 335 335 333 336 335 334 333 330 330 333 333 333 330 328 329 330 328 332 327 330 330 333 331 329 330 329 330 329 330 330 331 336 333 332 331 329 326 323 326 332 331 335 334 334 335 331 327 330 332 329 329 330 334 333 332 328 327 326 325 325 325 325 325 325 325 326 325 325 324 324 324 323 322 322 323 322 321 322 321 320 321 321 321 320 320 320
332 331 332 332 335 332 328 334 332 329 328 328 328 331 330 330 331 334 326 331 327 329 332 330 329 328 328 328 329 330 329 331 327 328 333 334 336 335 331 334 341 340 337 336 332 329 328 330 329 329 333 333 331 332 335 327 326 326 326 325 327 327 326 326 327 327 326 326 325 325 325 324 324 323 322 322 321 322 322 321 321 321 322 322 321 321 321
330 330 331 333 334 334 336 335 334 334 330 327 331 332 334 335 336 333 332 332 333 334 331 331 327 328 329 328 325 327 331 328 331 331 328 329 328 335 338 334 334 335 336 334 333 329 328 330 330 331 339 339 338 336 329 326 324 325 326 326 327 326 326 327 327 326 325 325 326 326 326 326 325 324 323 322 322 322 322 322 321 321 322 324 325 323 323
329 331 331 330 332 335 335 334 333 332 333 335 335 335 334 334 334 333 332 332 332 333 337 335 334 330 327 325 329 329 334 333 332 332 326 324 323 324 332 338 336 332 333 333 332 330 330 330 330 337 336 340 339 339 330 326 325 326 327 326 327 327 327 327 326 326 326 326 326 326 326 326 326 325 324 323 324 322 322 322 323 322 322 322 321 321 321
328 330 330 334 330 334 337 337 337 336 336 336 332 333 334 336 337 336 335 335 335 334 332 336 338 334 334 329 332 332 332 332 327 328 337 332 331 336 339 336 334 334 338 339 332 329 330 334 340 344 344 344 341 336 329 329 329 328 328 328 328 328 328 328 328 328 327 326 326 326 326 326 327 325 325 325 323 323 323 323 322 323 322 322 323 323 323
331 332 333 332 334 333 337 339 339 337 333 332 332 331 334 339 337 335 336 335 336 335 335 335 333 334 335 338 335 333 325 326 331 330 333 332 335 329 330 333 334 334 340 334 329 329 328 329 335 339 340 341 339 331 328 328 329 329 328 329 328 329 329 330 330 330 329 328 328 327 329 327 327 326 326 327 325 325 324 324 323 323 323 324 323 322 322
329 330 329 334 337 337 339 339 335 332 332 334 331 331 335 336 337 336 335 337 338 336 334 334 336 338 341 338 339 334 336 333 324 328 329 328 331 331 330 329 329 333 333 333 332 333 341 343 339 338 341 340 335 332 330 329 329 330 330 331 331 330 329 330 330 331 330 330 330 331 328 327 327 327 326 325 325 325 324 323 323 323 323 323 323 324 327
333 333 333 333 336 338 338 334 333 333 333 336 334 336 335 335 334 337 336 336 334 334 334 332 336 340 339 339 338 331 335 337 340 331 336 335 334 332 331 333 340 341 334 330 328 330 336 331 330 330 330 339 333 330 329 330 330 330 331 331 331 331 330 330 330 331 330 332 331 331 330 328 327 327 327 327 326 326 325 325 325 324 324 324 324 324 325
334 333 334 335 334 336 334 331 329 334 340 337 337 335 339 335 330 330 335 333 332 331 332 330 330 337 340 332 332 333 342 336 337 338 334 335 335 339 333 334 336 338 336 331 332 331 334 342 338 332 334 335 332 331 332 332 333 333 333 333 332 333 331 330 328 327 331 332 331 330 331 332 331 330 328 327 326 325 325 325 326 324 323 323 324 324 324
339 334 335 337 337 341 340 341 340 344 336 334 335 334 336 330 329 329 330 329 329 327 327 329 330 331 331 331 331 331 336 334 333 334 334 334 340 334 334 333 335 335 335 332 331 331 331 332 333 334 339 339 334 333 332 333 333 334 335 333 334 333 332 331 332 331 332 331 332 332 332 332 331 331 330 329 327 326 325 324 324 324 324 323 323 324 323
339 341 343 340 337 337 339 341 343 343 341 334 333 333 330 328 324 328 329 327 328 327 326 328 328 333 331 331 330 329 331 331 332 334 333 335 334 332 333 339 334 332 334 332 332 334 332 332 335 338 337 334 333 332 336 338 340 335 337 333 335 334 333 332 331 332 333 334 333 333 332 332 332 331 330 329 327 325 325 325 324 324 323 324 324 324 324
Wind_Speed
13 12 14 17 17 17 12 13 14 13 12 12 12 12 11 12 7 9 8 11 14 13 14 12 11 13 11 10 11 11 12 12 12 13 13 15 16 15 15 15 13 13 12 11 11 11 11 10 10 9 7 6 6 8 8 6 8 7 7 5 5 7 5 5 7 6 6 8 5 4 5 3 3 4 3 4 2 1 2 3 4 6 8 7 8 2 2
14 16 15 13 14 14 9 9 12 12 10 5 14 19 21 14 11 11 11 12 12 10 12 12 13 13 12 11 11 11 12 13 13 14 14 14 14 15 15 14 13 13 14 14 12 11 11 12 11 9 6 6 7 8 7 7 4 8 6 4 5 5 4 5 5 4 5 7 6 5 3 2 4 5 2 3 2 2 4 2 2 4 5 5 6 7 6
15 18 17 12 8 6 13 13 11 8 1 5 2 4 13 9 10 5 7 12 8 6 8 11 14 12 12 10 12 13 11 12 13 12 13 14 14 14 14 14 14 14 13 14 14 12 11 11 10 8 7 7 8 8 8 7 7 7 6 4 5 6 3 5 5 4 3 5 7 3 4 3 2 5 2 2 1 1 1 4 3 2 4 5 6 7 6
9 12 16 6 1 7 12 13 10 10 10 10 3 2 6 8 2 3 6 4 6 7 10 12 14 14 15 14 12 12 10 12 13 13 13 12 13 15 15 15 15 15 14 14 14 13 12 11 10 9 8 8 8 8 8 5 4 6 4 5 5 6 6 6 3 4 4 4 6 4 0 4 2 2 2 0 1 1 2 4 1 3 3 2 2 3 3
8 10 10 10 10 7 9 10 6 9 7 10 3 13 14 9 5 3 2 2 4 9 11 13 12 13 13 13 13 12 12 12 13 13 13 13 13 14 15 16 16 16 15 13 13 14 12 11 10 10 10 9 8 7 7 7 7 5 6 3 6 5 6 5 3 3 4 4 4 4 5 2 2 1 2 2 2 2 2 2 1 2 3 2 2 1 2
9 1 7 7 7 9 4 8 14 11 11 16 16 13 11 4 4 5 4 5 8 11 13 13 13 13 11 12 11 12 11 12 13 12 13 12 13 14 15 16 15 13 11 13 13 14 13 13 12 10 9 8 8 8 6 3 6 5 7 5 5 6 5 4 4 4 4 4 4 3 4 4 2 2 3 2 4 2 3 1 2 2 4 3 2 1 2
7 7 9 10 6 1 9 4 5 7 14 17 13 12 13 13 8 4 5 4 6 8 8 8 9 10 10 11 12 12 12 12 10 12 12 14 14 14 15 15 14 13 14 16 15 15 14 13 11 11 9 10 8 7 6 7 7 4 6 5 5 6 5 5 4 4 3 3 3 4 3 4 2 3 3 3 1 3 3 3 3 3 2 3 3 2 2
7 7 3 6 1 1 9 1 2 9 2 16 11 4 6 4 6 5 4 6 10 15 13 4 7 8 10 9 9 9 11 12 11 13 12 13 14 14 13 14 14 13 15 15 15 13 13 12 12 11 11 9 9 8 7 7 6 5 5 4 5 5 6 5 4 4 4 3 3 3 2 2 4 4 2 1 3 4 3 3 3 2 2 3 3 2 2
8 7 8 5 5 8 10 7 4 8 2 8 6 2 3 9 9 6 6 7 11 11 7 15 6 9 9 7 6 9 10 11 12 12 12 13 13 13 14 15 14 12 12 14 13 12 12 12 10 11 10 9 9 7 6 8 6 6 6 6 5 5 5 5 5 4 3 4 3 3 3 2 3 2 1 2 1 2 4 4 5 3 3 1 1 2 2
4 8 9 4 5 7 4 6 7 4 11 11 7 6 5 8 7 6 11 8 11 12 5 13 8 11 9 9 8 10 11 10 11 12 12 13 12 14 14 13 14 14 14 14 13 13 13 11 10 9 9 8 9 8 7 7 6 6 5 5 4 4 5 4 4 4 4 3 3 3 3 4 3 3 3 1 1 2 3 4 4 4 3 3 3 1 3
5 8 9 7 7 4 7 5 12 3 2 9 5 2 3 5 6 6 10 12 13 14 16 16 13 10 8 8 9 11 11 12 12 13 14 14 15 15 14 15 15 16 15 15 14 13 13 12 10 10 10 8 8 6 7 7 5 6 6 6 5 4 4 5 4 4 3 3 3 3 4 3 3 3 1 2 1 2 3 4 4 4 5 3 3 3 2
9 8 9 7 4 4 5 4 5 5 2 5 1 4 4 3 10 8 10 9 8 13 16 16 14 8 3 4 11 14 14 13 13 13 14 14 13 14 14 15 15 15 13 14 15 15 15 13 12 9 9 6 9 7 7 6 6 6 6 6 5 5 4 4 4 4 4 4 3 4 3 1 3 0 4 3 3 3 3 4 4 3 3 3 4 3 3
8 9 7 6 2 6 10 5 6 2 3 2 4 5 4 2 5 8 10 12 5 8 12 11 8 3 4 2 15 15 15 14 14 13 14 14 15 15 15 15 15 14 14 14 14 14 12 12 12 10 8 8 7 6 8 6 7 5 6 7 7 4 4 4 5 5 4 3 4 4 2 2 3 3 1 3 3 4 4 3 3 4 4 4 4 4 3
8 7 9 6 4 7 16 7 11 14 9 3 3 5 6 8 4 6 6 9 12 11 11 8 5 6 9 15 14 15 15 15 14 15 15 15 15 14 14 14 14 14 14 13 14 14 13 12 11 8 9 8 7 6 7 7 7 5 5 4 7 8 6 6 7 6 4 4 3 2 2 3 3 3 3 3 3 2 2 2 3 4 4 4 4 4 4
7 5 9 4 4 8 20 16 7 12 4 2 4 3 3 6 3 1 4 2 4 8 9 8 11 13 13 13 13 11 15 13 15 16 15 15 15 15 16 16 15 14 13 14 14 15 13 13 11 9 10 8 6 6 6 6 5 6 4 6 2 3 4 6 4 5 3 4 4 4 3 4 4 4 2 3 3 5 2 2 3 4 5 5 5 4 4
2 3 3 3 6 4 9 7 5 6 4 5 5 3 5 7 6 2 2 5 7 10 7 9 12 12 11 13 15 13 14 14 14 14 14 15 15 16 15 15 15 14 13 12 11 13 10 11 10 9 10 7 6 7 7 5 5 6 5 6 6 5 5 5 4 3 4 4 4 5 6 5 3 2 3 4 5 4 2 2 4 4 4 5 5 4 5
4 4 2 5 3 4 4 2 4 5 5 4 4 4 4 3 5 10 8 7 9 7 7 9 12 11 10 12 14 14 13 15 15 15 14 14 16 16 15 15 15 14 14 13 11 11 12 13 10 7 8 7 9 9 7 6 6 6 6 5 7 6 5 4 4 6 5 4 4 3 3 3 4 5 5 4 5 3 3 3 4 5 5 5 5 5 5
3 3 7 3 0 1 3 2 3 3 6 8 7 7 6 3 3 3 3 8 6 8 7 9 8 9 13 14 12 12 13 13 14 13 13 14 15 14 13 13 13 13 13 13 13 12 13 11 9 7 7 9 9 8 7 7 7 6 6 6 5 5 5 3 5 3 3 4 4 4 6 5 5 4 5 5 4 3 4 4 4 4 4 4 5 5 3
3 1 2 2 2 2 3 4 2 1 5 5 5 4 4 2 3 4 3 3 7 7 8 8 7 10 12 13 13 13 13 14 13 13 13 12 13 14 15 14 14 13 14 14 14 13 14 11 10 9 9 8 8 6 8 8 9 7 7 6 6 5 5 6 4 3 5 5 5 5 6 5 5 5 4 5 6 6 5 5 4 4 4 5 5 3 3
2 1 2 3 2 2 6 6 7 2 3 7 9 9 8 7 3 6 7 7 7 7 7 5 7 10 10 11 12 11 12 13 13 12 12 11 12 11 13 13 12 11 11 15 11 14 10 10 9 9 9 8 8 9 9 10 9 8 8 8 9 7 10 5 6 7 7 9 8 6 6 5 5 4 4 5 7 7 6 4 4 4 4 4 3 3 4
2 2 0 3 9 9 11 8 7 6 6 6 6 7 7 7 8 5 7 5 4 5 6 4 5 9 10 11 11 13 13 13 13 12 12 11 11 10 11 11 11 7 7 9 13 13 11 9 9 8 9 7 8 10 9 9 9 7 7 10 7 8 5 6 7 6 6 7 7 7 5 4 5 4 4 6 5 4 4 2 2 2 3 3 4 5 4
4 1 2 1 0 2 2 1 2 3 8 7 8 8 8 9 10 8 4 4 5 1 8 9 9 10 11 12 12 13 12 13 14 14 11 10 10 12 12 11 11 9 13 13 12 12 10 8 8 8 9 7 8 10 9 8 10 8 7 6 5 4 4 5 5 8 7 7 6 7 5 4 3 4 8 9 5 4 3 2 5 4 3 3 3 3 4
3 8 8 5 6 1 4 3 4 5 8 11 8 5 7 8 8 8 3 6 9 8 6 7 10 11 10 11 13 12 11 13 14 14 15 13 12 12 12 10 10 10 10 12 11 11 9 8 8 8 8 10 8 9 7 7 10 7 6 5 6 7 7 7 6 7 6 5 4 7 5 4 5 4 4 7 9 10 8 5 3 5 6 9 10 7 4
1 4 6 8 4 4 4 3 4 4 7 7 4 2 3 7 5 2 5 4 4 7 10 12 12 12 13 13 14 13 13 13 14 13 14 14 14 12 10 11 9 10 11 11 12 11 9 9 8 8 10 10 8 7 7 5 9 6 6 5 5 4 4 4 5 4 3 2 2 0 3 3 3 3 4 5 4 8 12 11 10 9 10 11 10 8 7
1 5 4 3 5 3 3 3 6 3 8 6 10 6 5 6 11 12 9 8 7 10 10 10 11 13 13 13 13 13 12 13 13 15 12 12 13 12 10 14 13 10 10 8 9 10 9 10 10 9 9 9 10 9 9 7 6 8 6 5 6 5 5 5 3 2 2 3 2 2 3 3 4 4 4 4 5 5 8 10 12 12 11 9 10 12 12
3 5 4 6 4 7 4 2 6 6 5 8 6 2 8 5 6 9 10 11 9 8 8 8 10 13 15 13 11 11 12 13 13 13 12 13 13 11 10 12 11 8 8 8 9 10 11 11 10 9 8 9 10 9 11 8 8 7 8 8 9 6 4 3 3 3 4 4 4 4 4 3 4 4 4 5 5 5 3 5 8 8 8 12 13 13 13
3 5 3 3 2 3 4 4 1 3 10 9 10 2 7 2 5 5 5 5 7 8 8 10 9 9 11 13 12 10 12 14 12 11 11 12 13 11 10 12 13 11 11 10 7 9 10 9 9 8 8 9 10 9 9 10 7 7 7 7 7 8 12 8 3 3 4 4 4 4 4 4 4 5 6 5 6 6 5 5 5 7 8 9 12 15 14
3 1 2 2 3 8 3 4 6 5 5 5 7 9 11 7 6 6 7 7 6 6 8 10 10 10 12 12 12 12 14 14 12 12 10 11 10 9 9 13 13 12 11 9 7 7 8 8 9 9 9 9 9 9 9 9 8 7 6 6 6 6 6 7 6 4 4 4 4 4 4 5 5 5 5 5 6 6 6 6 8 7 6 8 8 11 18
3 3 4 7 6 4 4 4 7 4 2 3 5 6 8 9 7 7 7 7 7 7 8 7 9 12 11 12 12 12 12 12 11 13 10 7 9 9 10 13 10 9 8 9 9 7 7 8 8 8 8 7 8 9 9 8 8 8 6 6 5 5 5 4 4 4 4 5 4 4 4 4 5 5 5 5 5 6 6 6 5 5 7 3 4 2 4
2 4 2 8 12 9 11 7 7 13 9 8 9 7 6 9 9 8 9 9 9 9 8 6 6 10 11 11 12 11 11 11 10 8 9 7 6 5 5 7 7 7 6 8 7 7 7 7 7 7 7 8 8 7 9 7 6 7 7 6 5 5 5 4 4 5 4 4 5 6 6 5 5 5 6 6 6 6 6 7 7 5 5 4 4 4 5
5 6 7 6 4 6 10 12 9 5 6 9 8 7 6 7 7 5 9 8 9 9 7 5 6 7 12 12 9 7 9 8 5 6 6 4 3 4 9 9 8 7 7 7 7 6 6 7 7 6 6 8 10 8 8 8 6 6 6 5 5 7 8 4 3 5 5 4 5 6 7 6 6 6 7 7 7 7 7 6 6 6 6 6 6 6 5
5 9 11 7 8 9 8 5 6 7 8 7 6 7 8 8 8 9 12 8 10 11 8 7 6 6 9 10 9 5 6 8 5 5 6 5 4 4 6 6 5 7 7 9 7 7 7 7 8 7 5 5 5 7 8 7 5 6 6 6 6 5 7 11 7 7 6 6 6 6 5 6 7 6 6 7 7 7 6 7 7 6 6 6 6 5 3
10 5 8 9 10 8 7 7 8 9 9 9 7 6 6 7 7 9 8 10 11 8 9 6 5 6 7 7 4 4 9 8 6 5 10 7 7 4 5 5 5 5 7 8 7 8 8 8 8 8 7 7 7 7 8 8 7 6 5 6 5 5 6 7 10 8 7 7 7 7 7 7 7 6 7 7 6 6 6 7 6 6 6 6 5 4 4
10 6 9 8 9 6 7 6 5 5 6 6 6 7 7 6 6 10 8 10 10 10 10 7 7 7 6 6 5 8 9 7 6 4 6 5 6 5 4 3 3 5 5 7 7 7 7 8 8 7 8 9 8 8 8 8 4 5 6 5 5 5 6 5 8 8 7 7 6 7 6 6 7 7 6 6 6 5 6 6 6 6 7 7 5 4 4
16 17 16 11 9 9 10 9 8 6 6 6 6 5 3 7 8 10 7 7 10 10 10 8 8 7 7 8 7 8 8 6 5 5 5 7 6 7 6 5 4 4 5 6 6 6 8 9 7 8 7 9 10 10 8 9 7 5 4 5 5 5 5 5 5 5 7 8 7 7 6 7 7 7 7 7 6 6 7 7 7 7 8 7 6 5 4
12 12 12 10 10 10 8 8 7 8 5 5 4 5 5 6 6 8 9 9 11 12 10 10 8 8 8 7 6 7 9 7 7 5 9 7 7 6 6 6 6 6 6 6 7 7 8 8 11 11 7 7 8 9 9 9 9 8 7 6 6 6 6 6 6 5 5 5 6 6 6 7 8 7 6 5 6 6 7 7 7 6 5 5 6 7 4
8 8 8 5 4 6 7 4 4 5 6 5 6 6 5 6 6 7 6 10 12 11 9 9 8 8 8 8 8 8 7 6 8 5 9 9 7 6 6 5 5 6 7 7 7 9 8 8 9 13 8 6 7 7 3 5 5 4 2 4 4 4 5 6 5 6 7 7 7 7 6 6 6 6 5 6 6 7 7 7 5 6 6 7 7 7 4
7 6 5 2 3 9 7 6 7 8 9 9 7 6 5 6 6 8 6 9 12 11 9 9 7 7 6 6 7 7 5 5 7 6 6 7 6 6 6 6 6 6 7 7 6 8 7 7 8 6 6 6 6 8 8 8 7 6 5 6 7 6 6 6 6 6 6 6 6 7 6 6 7 7 6 6 7 8 8 7 6 6 6 6 6 5 6
8 6 6 7 7 7 7 7 8 8 9 8 7 6 5 5 6 7 4 9 11 10 9 8 8 6 6 6 5 5 7 6 7 10 10 8 7 7 5 5 5 6 6 6 9 8 7 8 7 7 7 7 8 10 10 9 8 6 6 6 7 6 7 7 7 6 6 6 5 5 5 6 6 6 6 6 7 6 6 7 7 6 7 7 6 6 5
7 7 8 8 8 7 7 8 9 8 7 7 7 6 4 5 6 7 7 10 10 8 7 8 9 7 5 5 5 6 4 4 6 10 10 8 7 7 6 6 6 6 6 8 7 7 9 13 9 7 6 7 9 8 7 7 6 5 6 7 7 7 7 7 7 8 7 6 6 6 6 7 7 7 7 7 7 6 6 6 7 7 7 7 7 6 5
7 7 7 7 7 7 8 9 8 7 7 7 6 5 4 3 5 8 9 7 5 5 5 4 5 5 6 7 6 6 3 4 5 10 10 8 8 7 7 7 7 9 9 8 6 7 4 3 6 6 5 7 9 7 6 8 7 6 7 7 7 8 7 7 7 7 7 7 7 7 7 6 6 7 8 8 7 7 7 7 6 7 7 8 7 5 5
8 9 9 8 6 8 9 7 8 8 6 5 6 6 7 7 7 7 6 6 5 5 4 3 2 2 3 5 6 7 7 4 2 5 11 8 8 7 7 6 6 8 11 11 10 9 8 9 6 6 7 6 6 8 9 7 6 6 6 6 6 6 6 7 7 7 7 7 7 7 7 7 7 7 7 7 7 6 6 7 8 8 8 8 7 7 6
10 10 9 8 8 9 9 7 8 8 8 7 6 6 7 7 7 6 9 5 6 6 5 4 4 4 3 4 4 4 5 5 6 6 5 7 8 7 6 4 4 6 12 10 9 8 8 7 7 7 8 8 7 12 11 6 6 6 6 6 6 6 7 7 8 7 8 8 8 8 8 7 7 7 7 8 6 5 5 7 7 6 6 5 5 5 6
10 9 9 8 8 7 7 7 7 7 7 7 6 6 4 5 5 3 5 9 7 7 6 5 6 5 4 4 6 4 4 4 4 4 4 5 6 8 7 6 6 4 5 3 7 9 8 7 7 10 12 14 15 15 8 6 7 6 6 7 7 7 7 7 6 7 8 8 8 8 8 8 7 7 8 8 7 6 6 8 8 6 5 4 4 4 4
10 9 9 9 9 7 6 7 6 7 6 6 4 5 3 3 2 5 3 1 2 5 7 6 6 6 5 5 4 3 4 3 5 3 5 6 6 7 8 11 10 8 6 8 4 5 4 5 7 12 12 13 14 15 8 7 7 7 7 8 8 8 8 8 8 8 9 9 8 8 8 8 8 8 8 9 8 7 7 7 7 7 8 7 6 7 6
11 10 10 9 9 7 6 7 6 5 6 6 6 4 3 3 4 3 3 4 4 5 6 7 6 6 6 4 6 5 3 4 6 6 4 3 3 1 1 7 7 6 8 9 5 6 5 9 1 7 3 6 8 8 6 6 6 8 8 9 9 9 9 9 9 8 8 9 9 8 8 8 8 9 10 9 8 7 6 7 7 9 9 9 8 7 6
9 9 9 8 8 8 8 5 5 5 6 5 5 6 5 6 4 4 4 4 4 5 6 7 8 8 6 6 2 7 5 5 4 4 4 4 4 5 4 2 5 7 7 6 5 5 5 6 6 7 7 8 9 6 8 8 8 8 8 9 9 9 9 9 8 8 7 7 7 8 8 8 7 8 8 8 7 6 6 7 8 8 7 7 7 7 7
10 10 10 8 7 7 6 6 5 6 5 4 4 4 9 7 5 2 2 3 4 4 5 6 6 5 5 6 4 2 4 3 4 5 5 5 4 3 4 4 5 7 7 8 8 7 7 5 3 3 6 6 5 6 8 9 9 9 9 9 9 9 9 9 9 8 7 6 6 6 8 8 8 9 9 9 8 8 8 8 9 8 8 8 8 8 7
9 9 9 8 7 8 6 6 6 5 4 3 2 2 4 4 0 4 2 2 2 3 4 6 6 5 5 5 4 4 4 3 3 3 2 2 3 3 3 6 8 10 7 6 7 6 9 13 13 13 14 11 7 8 9 9 9 9 9 9 9 9 9 9 9 8 8 7 6 5 5 8 10 9 8 8 8 9 9 9 9 9 8 8 8 9 8
9 9 8 7 7 7 6 6 6 5 5 5 3 3 2 2 4 3 7 6 4 2 3 4 5 5 4 5 4 4 2 2 4 4 4 4 4 4 4 5 3 5 7 5 6 6 8 8 10 12 11 7 8 9 8 9 9 8 8 8 8 7 8 9 8 8 7 7 8 7 7 8 7 8 8 7 8 8 8 8 8 9 13 10 6 6 6
7 7 7 6 7 6 7 2 1 4 3 3 2 2 3 4 3 1 2 4 1 4 4 4 5 5 5 5 5 6 5 5 4 4 2 3 3 5 6 5 4 5 5 5 6 7 7 7 7 7 7 8 9 10 9 8 7 8 6 6 8 7 9 9 8 8 8 8 8 8 8 8 9 9 9 9 10 10 9 9 8 9 9 10 11 10 10
6 5 6 6 6 6 5 5 2 3 3 2 2 2 1 1 2 2 5 4 1 2 3 4 5 3 5 5 4 3 3 3 4 4 5 5 4 4 5 8 7 7 6 7 7 7 8 9 8 8 9 9 8 8 8 8 5 8 7 8 10 10 8 7 8 8 8 8 7 7 8 8 8 9 9 10 10 9 9 9 9 9 10 10 10 10 10
Wind_Direction
271 249 242 258 252 219 210 244 273 301 329 333 324 311 304 313 40 106 171 144 135 162 158 164 157 146 160 156 149 156 147 147 142 146 150 148 149 139 142 144 149 145 144 148 150 148 143 147 150 158 171 155 113 108 117 118 127 121 119 125 130 131 143 131 81 93 127 110 108 76 68 126 151 74 83 103 139 101 91 48 345 22 360 4 341 66 104
247 230 233 244 266 296 297 272 277 287 292 341 19 25 10 60 87 92 109 126 133 151 153 153 149 145 152 158 150 147 149 157 156 152 155 150 153 150 147 150 151 149 149 153 149 149 149 153 163 167 153 131 117 119 113 111 101 88 103 157 116 125 139 108 118 97 94 121 127 144 167 108 104 163 132 74 33 46 104 116 28 17 331 1 353 9 9
290 307 290 241 254 314 300 277 245 222 141 50 289 42 76 42 48 96 113 125 127 133 141 142 133 141 138 147 145 158 160 158 168 162 161 157 157 157 154 153 153 150 145 151 151 152 155 159 167 148 131 125 117 118 110 105 112 126 175 158 137 116 94 93 74 93 120 118 114 132 160 159 100 56 133 144 25 56 12 68 78 25 6 353 1 351 6
279 283 289 298 319 257 267 282 333 346 326 306 23 65 49 98 158 114 131 133 127 126 136 123 137 141 151 149 152 152 163 167 169 172 160 160 158 158 156 154 149 144 148 152 156 159 159 163 154 143 132 127 122 120 120 134 144 130 153 121 115 106 98 97 132 188 126 102 118 135 16 81 107 155 37 62 188 282 31 70 70 32 320 330 14 331 5
264 268 292 312 303 278 261 316 327 311 301 303 99 62 58 42 99 206 7 20 146 143 133 134 140 144 152 157 166 164 172 177 172 171 164 163 163 160 158 153 151 151 152 156 160 161 161 157 147 146 138 134 133 134 135 172 127 158 116 113 109 122 117 131 191 129 105 126 120 163 131 177 180 146 212 195 237 214 85 73 12 279 232 236 351 321 321
267 223 320 322 312 265 49 279 346 349 3 49 49 41 46 33 331 10 340 0 125 143 152 149 157 156 162 163 170 174 175 179 177 168 161 161 162 161 155 154 151 150 157 160 159 158 158 154 151 150 145 132 130 134 139 165 124 166 128 139 141 134 141 157 175 124 148 157 150 134 140 165 207 213 202 216 259 273 128 165 259 261 283 329 318 319 319
262 284 259 247 235 338 285 298 308 13 55 68 48 35 24 26 14 319 312 80 140 146 155 150 144 147 158 160 166 174 176 179 178 171 160 162 164 166 156 152 152 163 163 162 159 159 155 152 148 148 133 134 140 142 164 158 131 157 125 150 148 143 158 166 163 140 149 173 159 141 200 155 191 219 224 241 266 36 333 313 192 242 325 314 300 309 318
280 271 297 278 320 16 285 27 313 85 41 79 73 35 347 320 277 281 93 66 37 11 352 121 132 137 149 153 164 176 174 179 170 167 158 162 161 163 159 155 156 164 163 161 157 156 151 154 151 146 140 146 156 155 162 136 141 155 135 153 169 160 164 160 164 155 162 178 172 149 179 215 181 213 198 334 343 347 330 283 307 297 254 266 293 320 311
288 278 266 282 27 271 251 310 2 6 24 111 122 115 268 253 226 188 142 104 84 75 339 312 136 143 131 141 165 174 174 176 175 166 161 154 169 155 152 155 155 166 157 153 153 147 148 147 147 143 154 158 146 147 155 136 152 153 159 168 174 170 163 160 168 163 182 173 197 165 158 226 240 281 4 238 229 277 279 290 303 298 265 238 358 288 292
350 302 284 215 210 240 179 132 60 307 96 126 133 124 168 190 229 171 137 131 115 125 142 254 180 143 147 168 182 178 173 174 170 153 153 157 160 150 159 157 159 164 155 152 142 149 147 145 144 148 149 166 156 153 143 131 166 149 170 164 161 187 165 169 174 168 187 183 192 171 195 212 220 221 196 165 252 263 265 287 270 271 336 293 228 232 303
239 267 279 276 283 317 343 133 145 139 326 120 148 211 242 150 123 130 138 140 156 161 175 188 149 172 187 185 172 178 172 175 170 160 159 161 162 158 156 158 160 159 156 147 151 149 146 149 150 157 158 161 123 159 148 151 157 163 162 156 161 194 179 175 169 168 199 193 199 197 206 212 229 222 223 79 354 271 276 281 278 267 269 280 354 319 314
245 254 253 270 313 33 45 5 21 15 88 124 115 237 51 59 139 174 140 143 167 184 174 157 169 190 286 199 169 172 176 168 153 152 161 155 153 155 155 157 157 152 146 145 156 154 149 152 153 151 153 148 145 171 137 167 168 173 176 163 164 173 183 152 156 186 198 195 203 237 193 253 247 189 123 178 208 247 261 271 295 345 323 315 329 308 296
229 228 262 264 142 17 31 39 33 284 358 310 270 26 305 263 96 106 132 128 184 222 170 173 167 193 271 132 144 162 168 159 154 153 150 154 158 157 155 155 149 148 151 156 157 158 155 156 153 146 155 147 171 163 145 165 172 197 141 143 143 181 146 154 157 185 177 189 205 218 223 260 276 285 304 212 208 225 248 256 274 300 325 312 288 288 301
274 286 261 265 85 22 342 359 22 11 332 348 29 240 303 38 38 106 124 150 178 188 175 177 139 101 112 124 150 156 164 161 156 154 153 153 152 157 145 140 149 151 157 158 157 157 154 162 158 144 150 160 177 169 151 170 178 142 132 145 157 156 180 174 180 185 183 177 225 173 205 234 256 262 249 303 279 239 199 251 313 306 301 301 296 289 286
300 324 281 284 315 347 315 339 23 40 1 77 209 222 133 91 311 77 112 161 180 180 188 147 114 117 126 140 145 152 148 159 159 152 151 153 154 148 144 151 156 158 161 163 162 153 162 161 154 151 158 176 171 145 174 157 155 119 171 123 160 148 175 141 200 139 171 185 196 218 213 216 235 235 251 255 278 290 292 318 306 299 295 295 300 297 289
336 37 53 97 197 254 277 40 54 49 76 167 227 298 85 159 183 146 80 139 204 217 188 129 123 131 142 138 139 150 155 152 155 155 155 156 151 145 151 153 156 161 164 161 155 160 148 135 145 159 165 175 149 163 166 157 132 135 168 158 147 180 198 164 153 151 172 201 196 219 219 217 221 257 264 258 264 261 296 291 291 286 282 287 287 295 295
2 41 85 90 148 254 285 54 131 132 164 176 193 226 228 223 143 136 166 187 205 201 162 138 137 141 146 140 144 151 158 151 151 157 160 160 154 155 161 154 163 164 167 161 149 149 129 137 142 156 165 160 156 178 163 153 136 167 155 178 140 195 142 204 152 178 180 201 218 234 271 246 220 225 227 246 268 272 290 276 267 264 274 280 275 263 249
17 41 42 5 204 108 289 184 157 222 171 187 200 265 245 151 116 120 132 165 189 157 147 129 135 141 136 140 150 149 149 152 154 156 160 157 147 157 157 153 166 170 164 156 154 160 127 138 142 160 157 160 166 183 147 148 152 168 162 163 179 172 189 165 165 202 180 202 213 215 240 233 227 235 246 239 244 269 252 248 242 259 269 267 259 256 204
305 110 15 162 135 271 295 334 184 220 343 138 100 64 40 28 68 82 86 223 140 139 147 146 142 134 142 149 151 152 152 154 156 160 164 161 155 159 158 160 178 180 169 161 172 146 134 157 160 162 163 156 181 149 134 162 161 169 170 161 191 179 188 170 189 211 197 210 218 222 232 228 235 242 246 238 236 235 228 219 235 242 244 254 256 258 215
277 135 241 238 149 51 26 26 8 67 60 48 41 35 45 8 84 168 145 130 130 152 135 120 135 139 147 150 151 153 147 152 158 162 165 160 158 160 158 166 185 174 166 175 148 127 143 151 165 161 161 165 179 153 164 178 158 173 164 185 181 190 181 180 181 200 205 219 225 222 219 227 258 261 268 281 265 233 209 229 233 230 240 271 295 281 263
307 214 344 38 72 37 359 358 24 359 47 75 46 51 33 25 357 89 98 103 98 89 109 131 144 151 145 154 157 156 153 156 162 163 167 162 160 147 159 174 187 169 136 126 125 143 144 157 161 164 157 176 159 161 178 175 146 175 173 207 204 180 191 187 195 196 216 207 203 220 233 220 217 229 251 265 286 345 327 202 195 265 290 226 229 257 293
241 90 85 70 335 104 165 44 14 42 70 71 46 29 26 34 5 323 105 132 110 42 157 159 157 153 153 157 163 155 156 159 161 163 159 160 152 161 171 169 190 173 144 136 147 149 155 156 163 160 164 169 167 170 194 164 149 183 187 207 222 228 207 200 219 202 212 238 193 194 215 225 222 226 228 231 258 292 297 58 115 129 163 252 275 342 337
6 4 321 76 55 51 307 56 44 76 83 110 117 141 167 158 188 244 207 195 149 160 147 162 161 151 156 153 156 153 157 162 162 164 161 163 160 171 173 162 149 129 127 134 151 147 157 160 165 161 164 173 180 178 189 172 158 179 179 191 210 211 235 229 210 239 216 203 138 164 201 191 201 232 240 221 223 225 242 224 216 234 233 247 269 269 242
296 30 13 109 141 165 253 114 72 30 116 111 67 74 318 108 120 87 265 82 170 186 171 168 162 156 154 153 155 154 155 159 157 164 166 163 167 167 165 146 141 136 140 152 156 161 161 162 170 165 174 176 190 177 175 206 153 171 194 199 227 240 217 239 253 259 305 11 23 324 179 214 258 251 257 277 225 233 233 236 237 229 233 240 256 278 272
11 30 325 14 120 140 256 18 71 8 321 123 136 165 231 194 167 176 197 169 195 186 188 166 166 157 155 151 149 148 153 151 155 158 170 160 165 163 172 142 150 152 152 155 150 162 171 166 174 175 182 176 184 194 171 204 181 170 187 212 231 226 216 244 251 292 334 325 292 264 269 228 204 223 250 256 264 240 236 238 237 236 240 248 252 253 258
61 57 360 338 30 138 222 209 159 187 79 50 15 215 131 241 114 176 199 181 179 146 132 142 141 147 144 134 136 144 143 146 147 158 164 157 158 175 182 153 146 157 162 158 163 172 178 173 174 180 184 182 183 195 174 188 197 189 186 204 225 248 257 254 242 228 261 258 249 233 222 241 276 267 243 249 250 268 220 206 248 263 251 242 246 256 257
13 106 145 239 251 281 145 155 269 220 135 133 183 151 98 137 210 198 138 138 132 135 143 130 122 113 116 126 131 137 138 134 149 154 160 161 164 182 182 155 150 165 172 176 160 173 176 172 170 187 189 195 180 195 184 183 193 202 199 200 211 233 243 253 255 253 235 240 246 255 244 239 239 242 251 253 262 260 259 249 233 214 221 235 239 232 239
267 79 275 84 182 200 166 139 175 137 95 173 139 161 158 197 179 148 131 106 102 97 101 111 125 125 119 125 129 129 128 146 155 158 163 168 173 178 173 155 159 169 173 159 157 174 171 163 178 192 196 205 178 185 198 183 182 198 212 202 213 219 225 236 238 235 252 253 246 245 248 244 242 255 258 264 264 265 254 243 240 236 212 210 214 223 225
58 357 53 340 225 210 121 66 30 66 200 218 191 179 183 169 134 133 129 117 106 106 106 110 109 116 127 130 130 136 147 152 154 158 176 182 187 177 167 146 153 159 159 156 172 181 166 167 184 195 196 215 199 183 196 197 178 193 202 213 216 223 229 230 239 251 237 241 252 252 256 250 256 257 254 256 261 268 279 283 283 288 278 255 238 183 193
38 315 95 229 222 167 130 120 198 214 179 172 186 197 192 145 171 163 135 142 135 114 109 105 115 124 131 127 134 149 154 160 163 172 171 168 156 172 149 114 128 147 153 148 161 176 175 173 193 202 198 201 214 197 198 197 186 185 193 200 209 219 232 231 233 229 240 248 255 252 243 247 250 252 263 265 263 268 273 270 271 268 271 263 260 243 206
182 254 243 185 212 182 171 176 189 194 172 183 195 187 171 172 163 155 128 112 112 109 107 116 106 127 125 130 126 153 159 139 136 142 119 116 205 144 119 133 153 156 148 148 160 175 186 185 199 209 208 205 205 206 211 204 192 196 195 195 204 213 218 226 238 253 262 261 245 236 244 244 243 239 240 246 251 247 250 256 259 252 243 247 238 235 227
156 226 222 194 199 194 181 155 178 160 205 198 203 169 185 190 177 141 126 138 118 112 128 121 143 122 112 129 148 177 132 122 145 161 151 165 153 133 117 140 166 147 147 154 169 174 193 195 203 210 209 230 233 209 202 217 202 198 212 207 214 219 209 206 225 230 240 249 262 267 259 248 246 244 247 243 247 249 250 250 253 257 262 263 258 253 240
157 200 217 195 212 191 173 189 195 179 196 190 194 172 194 194 171 135 132 115 115 125 120 126 110 87 90 109 131 117 109 129 156 200 151 178 124 118 133 165 152 143 142 154 176 178 196 201 209 203 206 211 226 243 233 202 194 217 210 209 216 223 229 202 213 222 226 231 236 239 244 253 260 256 249 244 248 262 267 270 271 278 276 269 260 257 227
132 157 250 197 188 173 200 181 197 240 209 178 171 187 206 173 144 124 128 134 133 130 125 134 121 118 124 136 150 121 138 148 168 194 160 124 120 132 128 164 148 152 145 156 182 197 199 204 212 212 201 203 212 224 239 264 245 208 209 199 217 224 229 239 204 209 225 236 244 244 243 245 247 251 259 263 259 252 261 268 273 272 267 268 276 256 218
148 180 216 200 185 207 197 162 204 218 211 172 172 187 171 142 140 142 176 140 127 124 130 135 126 140 151 158 179 153 144 149 170 204 135 129 133 139 156 164 188 191 172 182 188 200 210 208 207 218 209 209 205 209 215 226 244 258 229 215 213 228 247 249 249 222 216 225 224 236 244 245 247 241 240 248 264 271 266 260 253 250 255 256 265 264 243
172 172 192 189 195 203 183 165 181 205 175 153 159 136 117 139 153 139 130 119 121 124 134 132 150 156 160 156 192 163 155 170 171 192 136 154 155 170 157 177 179 182 185 201 204 211 215 220 205 211 219 214 217 229 223 217 215 210 217 209 208 215 216 224 233 249 264 271 257 240 235 239 243 251 257 257 252 253 261 270 267 267 277 291 283 265 255
142 157 197 165 200 172 160 124 167 143 115 100 91 99 110 124 119 112 152 141 132 135 138 146 167 163 164 160 198 170 168 171 172 177 153 166 163 159 165 178 192 195 193 206 202 213 215 223 208 202 214 245 260 260 258 245 243 262 283 252 250 234 248 252 245 232 232 228 239 248 250 258 263 263 254 250 255 260 260 255 259 269 253 237 244 262 256
126 133 124 129 135 123 126 131 119 111 112 107 106 104 121 122 143 150 194 127 129 135 158 155 171 171 153 171 212 146 162 179 166 151 122 133 131 148 170 190 197 206 211 215 201 213 212 217 200 181 209 233 246 254 257 260 262 266 258 264 263 264 258 250 239 238 249 248 229 225 229 242 250 253 250 249 246 245 247 254 251 249 266 267 262 254 254
117 119 97 92 93 105 107 112 117 106 111 114 114 110 107 134 122 136 181 145 140 142 182 168 163 179 171 174 242 170 165 193 181 155 146 147 147 162 178 191 200 208 211 210 212 210 212 210 205 205 208 221 228 237 248 261 234 223 236 240 250 254 257 265 271 263 248 243 243 245 246 247 253 258 260 262 265 266 261 255 253 255 254 261 257 249 251
123 120 126 124 114 110 111 101 101 105 110 116 125 122 135 134 152 140 69 86 122 157 182 152 157 180 170 196 226 262 180 198 146 145 152 154 152 170 179 193 203 208 217 225 225 220 200 199 212 225 209 207 221 235 244 242 234 225 245 251 252 249 249 254 260 265 267 260 248 230 234 236 236 245 259 268 272 269 272 271 269 258 249 235 231 229 224
132 133 127 118 121 126 113 109 111 109 108 103 110 120 143 149 109 103 109 114 87 67 61 86 151 167 173 189 208 242 211 208 191 161 150 158 166 174 196 203 188 212 210 211 223 254 257 215 231 230 223 220 227 218 219 235 234 244 248 251 250 252 253 250 251 255 255 254 254 261 263 264 263 251 243 236 236 243 252 255 258 266 268 269 264 242 225
136 132 128 131 121 106 108 112 109 107 111 130 136 139 124 113 113 109 105 114 136 140 121 156 196 229 209 205 203 213 248 214 220 129 147 164 169 183 202 217 199 202 206 206 203 211 229 236 235 237 254 271 288 277 254 229 227 230 240 244 250 255 260 262 265 266 269 269 270 266 261 260 257 254 245 236 234 235 250 263 265 261 258 248 227 226 227
134 136 140 128 115 123 122 116 121 127 132 132 135 121 126 128 120 130 134 143 156 143 157 156 149 174 206 227 265 244 221 218 200 194 179 173 173 190 217 235 207 225 217 204 207 213 218 228 232 239 228 232 240 253 262 249 240 243 247 249 252 249 251 250 253 255 260 268 268 266 262 258 257 256 263 269 266 255 250 258 253 250 252 247 243 237 241
143 136 134 132 130 128 123 123 129 142 142 140 143 135 139 123 140 183 189 157 176 153 170 176 172 184 204 205 192 228 257 234 220 176 197 208 195 185 199 227 252 232 189 210 206 224 231 223 216 230 232 217 214 228 233 246 251 250 247 249 252 254 255 252 249 251 255 252 251 256 258 259 260 268 271 267 259 249 238 244 257 272 286 298 301 304 302
136 130 139 138 134 128 138 135 146 155 144 125 134 133 152 137 166 162 252 332 189 165 167 181 182 190 205 193 192 192 197 251 268 224 204 216 236 241 195 204 213 227 206 204 224 226 238 241 254 242 226 210 208 212 222 235 247 253 261 265 268 268 268 263 258 257 257 257 260 261 258 255 258 256 258 259 256 248 246 256 263 253 245 246 249 249 248
139 147 142 138 142 147 144 149 162 153 134 142 159 155 187 170 188 212 223 224 222 228 205 189 192 196 227 219 160 163 194 203 233 243 247 267 255 273 310 204 191 217 189 183 217 235 240 244 163 88 105 150 196 205 231 243 252 257 262 262 264 261 257 256 256 257 261 262 257 254 252 252 250 252 256 254 254 254 251 239 238 250 258 258 259 262 262
145 143 145 147 149 150 155 158 148 142 145 172 164 164 174 169 181 197 196 211 232 237 235 223 203 197 210 258 249 151 184 195 218 240 260 218 255 267 280 151 172 209 172 188 218 226 234 239 225 212 206 196 205 230 254 259 258 260 260 260 259 260 260 263 260 257 253 256 261 257 249 250 258 266 265 261 253 247 249 246 246 249 255 253 246 239 240
145 150 153 154 156 149 152 139 159 159 168 170 224 165 155 177 176 238 301 238 208 228 244 237 229 198 185 198 255 206 193 225 237 199 202 244 238 213 218 215 200 195 191 212 223 239 248 268 280 240 215 218 240 252 253 258 261 263 264 265 263 262 263 264 260 258 253 252 260 276 273 263 252 245 244 244 247 244 244 248 254 250 241 241 244 243 228
152 155 155 158 154 141 148 164 171 155 175 134 139 21 17 18 338 165 188 246 256 254 254 239 223 182 170 168 210 230 199 182 251 323 20 275 278 269 226 211 207 180 188 210 236 241 221 217 231 241 250 246 245 251 258 260 261 263 262 260 263 265 265 266 269 269 267 261 252 239 252 264 264 258 258 256 254 253 248 242 241 243 247 244 240 237 229
157 150 160 161 156 159 167 166 180 189 145 156 198 128 187 235 268 202 179 191 173 218 225 218 203 168 170 185 196 237 247 190 218 221 229 239 273 294 311 309 314 176 196 238 260 263 272 254 231 231 238 244 244 248 254 258 263 263 264 259 258 261 264 265 260 258 257 260 258 252 247 250 260 268 271 270 268 266 260 252 245 244 239 234 242 249 257
149 158 164 156 163 163 188 184 22 139 155 131 140 161 151 244 234 55 22 348 127 162 243 207 171 166 176 209 210 206 196 204 221 226 235 265 277 284 290 286 284 284 279 267 262 263 257 256 258 247 225 227 241 249 257 257 253 250 253 280 276 268 265 264 261 263 260 256 255 256 252 251 251 252 250 255 257 259 258 257 255 253 254 254 253 250 246
150 153 144 157 162 169 183 133 118 74 80 152 234 295 310 8 302 226 128 158 214 136 208 219 159 172 189 204 203 239 228 215 202 208 208 229 242 254 247 232 234 241 241 249 253 250 256 263 261 258 263 268 273 272 256 241 236 259 244 232 246 256 258 266 272 269 267 265 257 253 255 256 257 259 258 255 253 253 252 254 255 256 255 254 251 249 249